Weather History for Chillicothe, MO

Change the Weather History Date:

Saturday, March 30, 2013

  Actual Average (KIRK) Record (KIRK)
Temperature  
Mean Temperature 50 °F 46 °F  
Max Temperature 54 °F 57 °F 82 °F (1943)
Min Temperature 46 °F 35 °F 11 °F (1964)
Degree Days  
Heating Degree Days 15 19  
Month to date heating degree days 735  
Since 1 July heating degree days 5268  
Cooling Degree Days 0 0  
Month to date cooling degree days 0  
Year to date cooling degree days 0  
Moisture  
Dew Point 45 °F    
Average Humidity 82    
Maximum Humidity 93    
Minimum Humidity 64    
Precipitation  
Precipitation 0.67 in 0.07 in 1.80 in (1953)
Month to date precipitation 2.47  
Year to date precipitation 5.27  
Sea Level Pressure  
Sea Level Pressure 30.00 in    
Wind  
Wind Speed 6 mph (SSE)    
Max Wind Speed 14 mph    
Max Gust Speed 21 mph    
T = Trace of Precipitation, MM = Missing Value Source: NWS Daily Summary

Daily Weather History Graph

Daily Weather History Graph

Search for Another Location

Airport:

Trip Planner

Search our weather history database for the weather conditions in past years. The results will help you decide how hot, cold, wet, or windy it might be!

Date:

Astronomy

Mar. 30, 2013 Rise Set
Actual Time 7:01 AM CDT 7:36 PM CDT
Civil Twilight 6:34 AM CDT 8:03 PM CDT
Nautical Twilight 6:01 AM CDT 8:36 PM CDT
Astronomical Twilight 5:29 AM CDT 9:09 PM CDT
Moon 11:43 PM CDT (3/30) 8:57 AM CDT (3/30)
Length of Visible Light 13h 29m
Length of Day
12h 35m
Waning Gibbous, 86% of the Moon is Illuminated
Mar 30
Waning Gibbous
Apr 2
Last Quarter
Apr 10
New
Apr 18
First Quarter
Apr 25
Full

Hourly Weather History & Observations

Time (CDT) Temp. Windchill Dew Point Humidity Pressure Visibility Wind Dir Wind Speed Gust Speed Precip Events Conditions
12:52 AM 48.9 °F - 37.0 °F 64% 30.13 in - ESE 6.9 mph - N/A   Unknown
1:52 AM 48.0 °F - 37.9 °F 68% 30.13 in - SSE 5.8 mph - N/A   Unknown
2:52 AM 48.0 °F - 37.9 °F 68% 30.12 in - SE 4.6 mph - N/A   Unknown
3:52 AM 46.9 °F - 37.9 °F 71% 30.10 in - SE 5.8 mph - N/A   Unknown
4:52 AM 46.9 °F - 37.9 °F 71% 30.08 in - SE 3.5 mph - N/A   Unknown
5:52 AM 46.0 °F 43.1 °F 39.0 °F 76% 30.05 in - ESE 5.8 mph - N/A   Unknown
6:52 AM 46.0 °F 42.5 °F 39.9 °F 79% 30.03 in - SE 6.9 mph - N/A   Unknown
7:52 AM 46.9 °F - 41.0 °F 80% 30.03 in - SE 5.8 mph - N/A   Unknown
8:52 AM 48.9 °F - 43.0 °F 80% 30.00 in - SE 11.5 mph - N/A   Unknown
9:52 AM 51.1 °F - 44.1 °F 77% 30.00 in - SE 9.2 mph - N/A   Unknown
10:52 AM 51.1 °F - 46.0 °F 83% 30.01 in - SSE 11.5 mph 17.3 mph 0.03 in   Unknown
11:52 AM 50.0 °F - 46.9 °F 89% 30.01 in - SSE 6.9 mph - 0.41 in   Unknown
12:52 PM 50.0 °F - 48.0 °F 93% 30.00 in - SSE 8.1 mph - 0.16 in   Unknown
1:52 PM 51.1 °F - 48.0 °F 89% 29.96 in - South 13.8 mph 20.7 mph 0.07 in   Unknown
2:52 PM 54.0 °F - 48.9 °F 83% 29.94 in - South 11.5 mph - N/A   Unknown
3:52 PM 54.0 °F - 48.9 °F 83% 29.93 in - South 5.8 mph - N/A   Unknown
4:52 PM 54.0 °F - 48.9 °F 83% 29.91 in - SSE 6.9 mph - N/A   Unknown
5:52 PM 54.0 °F - 50.0 °F 86% 29.92 in - South 5.8 mph - N/A   Unknown
6:52 PM 54.0 °F - 50.0 °F 86% 29.91 in - South 3.5 mph - N/A   Unknown
7:52 PM 53.1 °F - 50.0 °F 89% 29.91 in - SSE 3.5 mph - N/A   Unknown
8:52 PM 53.1 °F - 50.0 °F 89% 29.93 in - Calm Calm - N/A   Unknown
9:52 PM 52.0 °F - 50.0 °F 93% 29.94 in - Calm Calm - N/A   Unknown
10:52 PM 52.0 °F - 48.9 °F 89% 29.94 in - Calm Calm - N/A   Unknown
11:52 PM 51.1 °F - 48.9 °F 92% 29.95 in - Calm Calm - N/A   Unknown